Time,TemperatureF,DewpointF,PressureIn,WindDirection,WindDirectionDegrees,WindSpeedMPH,WindSpeedGustMPH,Humidity,HourlyPrecipIn,Conditions,Clouds,dailyrainin,SoftwareType,DateUTC
2013-04-23 00:05:00,36.3,8.6,-100.00,North,-999,0.0,0.0,31,0.00,,,-99.99,FreeWX-Wi 1.01,2013-04-23 04:05:00,
2013-04-23 00:15:00,36.3,8.6,-100.00,North,-999,0.0,2.7,31,0.00,,,-99.99,FreeWX-Wi 1.01,2013-04-23 04:15:00,
2013-04-23 00:25:00,36.3,8.6,-100.00,North,-999,0.0,0.0,31,0.00,,,-99.99,FreeWX-Wi 1.01,2013-04-23 04:25:00,
2013-04-23 00:35:00,36.3,8.6,-100.00,North,-999,0.0,3.1,31,0.00,,,-99.99,FreeWX-Wi 1.01,2013-04-23 04:35:00,
2013-04-23 00:45:00,36.3,8.6,-100.00,North,-999,0.0,0.0,31,0.00,,,-99.99,FreeWX-Wi 1.01,2013-04-23 04:45:00,
2013-04-23 00:55:00,36.3,8.6,-100.00,North,-999,0.0,2.7,31,0.00,,,-99.99,FreeWX-Wi 1.01,2013-04-23 04:55:00,
2013-04-23 01:05:00,36.3,8.6,-100.00,North,-999,0.0,0.0,31,0.00,,,-99.99,FreeWX-Wi 1.01,2013-04-23 05:05:00,
2013-04-23 01:15:00,36.3,8.6,-100.00,North,-999,0.0,4.0,31,0.00,,,-99.99,FreeWX-Wi 1.01,2013-04-23 05:15:00,
2013-04-23 01:25:00,36.5,8.8,-100.00,North,-999,0.0,0.0,31,0.00,,,-99.99,FreeWX-Wi 1.01,2013-04-23 05:25:00,
2013-04-23 01:35:00,36.5,8.8,-100.00,North,-999,0.0,2.7,31,0.00,,,-99.99,FreeWX-Wi 1.01,2013-04-23 05:35:00,
2013-04-23 01:45:00,36.7,9.0,-100.00,North,-999,0.0,0.0,31,0.00,,,-99.99,FreeWX-Wi 1.01,2013-04-23 05:45:00,
2013-04-23 01:55:00,36.7,9.0,-100.00,North,-999,0.0,4.0,31,0.00,,,-99.99,FreeWX-Wi 1.01,2013-04-23 05:55:00,
2013-04-23 02:05:00,36.7,9.0,-100.00,North,-999,0.0,5.4,31,0.00,,,-99.99,FreeWX-Wi 1.01,2013-04-23 06:05:00,
2013-04-23 02:15:00,36.5,8.8,-100.00,North,-999,0.0,3.6,31,0.00,,,-99.99,FreeWX-Wi 1.01,2013-04-23 06:15:00,
2013-04-23 02:25:00,36.3,8.6,-100.00,North,-999,0.0,3.6,31,0.00,,,-99.99,FreeWX-Wi 1.01,2013-04-23 06:25:00,
2013-04-23 02:35:00,36.1,8.4,-100.00,North,-999,0.0,0.0,31,0.00,,,-99.99,FreeWX-Wi 1.01,2013-04-23 06:35:00,
2013-04-23 02:45:00,36.0,9.7,-100.00,North,-999,0.0,0.0,33,0.00,,,-99.99,FreeWX-Wi 1.01,2013-04-23 06:45:00,
2013-04-23 02:55:00,36.0,9.7,-100.00,North,-999,0.0,0.0,33,0.00,,,-99.99,FreeWX-Wi 1.01,2013-04-23 06:55:00,
2013-04-23 03:05:00,36.0,9.7,-100.00,North,-999,0.0,0.0,33,0.00,,,-99.99,FreeWX-Wi 1.01,2013-04-23 07:05:00,
2013-04-23 03:15:00,35.8,9.5,-100.00,North,-999,0.0,3.1,33,0.00,,,-99.99,FreeWX-Wi 1.01,2013-04-23 07:15:00,
2013-04-23 03:25:00,35.8,9.5,-100.00,North,-999,0.0,2.2,33,0.00,,,-99.99,FreeWX-Wi 1.01,2013-04-23 07:25:00,
2013-04-23 03:35:00,35.8,9.5,-100.00,North,-999,0.0,4.0,33,0.00,,,-99.99,FreeWX-Wi 1.01,2013-04-23 07:35:00,
2013-04-23 03:45:00,35.8,9.5,-100.00,North,-999,0.0,0.0,33,0.00,,,-99.99,FreeWX-Wi 1.01,2013-04-23 07:45:00,
2013-04-23 03:55:00,35.8,9.5,-100.00,North,-999,0.0,3.6,33,0.00,,,-99.99,FreeWX-Wi 1.01,2013-04-23 07:55:00,
2013-04-23 04:05:00,35.8,9.5,-100.00,North,-999,0.0,0.0,33,0.00,,,-99.99,FreeWX-Wi 1.01,2013-04-23 08:05:00,
2013-04-23 04:15:00,35.8,9.5,-100.00,North,-999,0.0,3.6,33,0.00,,,-99.99,FreeWX-Wi 1.01,2013-04-23 08:15:00,
2013-04-23 04:25:00,35.8,9.5,-100.00,North,-999,0.0,4.0,33,0.00,,,-99.99,FreeWX-Wi 1.01,2013-04-23 08:25:00,
2013-04-23 04:35:00,35.8,9.5,-100.00,North,-999,0.0,0.0,33,0.00,,,-99.99,FreeWX-Wi 1.01,2013-04-23 08:35:00,
2013-04-23 04:45:00,36.0,9.7,-100.00,North,-999,0.0,3.6,33,0.00,,,-99.99,FreeWX-Wi 1.01,2013-04-23 08:45:00,
2013-04-23 04:55:00,36.0,11.7,-100.00,North,-999,0.0,4.9,36,0.00,,,-99.99,FreeWX-Wi 1.01,2013-04-23 08:55:00,
2013-04-23 05:05:00,36.0,11.7,-100.00,North,-999,0.0,5.8,36,0.00,,,-99.99,FreeWX-Wi 1.01,2013-04-23 09:05:00,
2013-04-23 05:15:00,36.0,11.7,-100.00,NNE,29,1.0,5.8,36,0.00,,,-99.99,FreeWX-Wi 1.01,2013-04-23 09:15:00,
2013-04-23 05:25:00,36.1,11.8,-100.00,North,-999,0.0,5.4,36,0.00,,,-99.99,FreeWX-Wi 1.01,2013-04-23 09:25:00,
2013-04-23 05:35:00,36.1,13.1,-100.00,North,-999,0.0,4.0,38,0.00,,,-99.99,FreeWX-Wi 1.01,2013-04-23 09:35:00,
2013-04-23 05:45:00,36.1,13.1,-100.00,North,-999,0.0,4.0,38,0.00,,,-99.99,FreeWX-Wi 1.01,2013-04-23 09:45:00,
2013-04-23 05:55:00,36.1,14.7,-100.00,North,-999,0.0,3.6,41,0.00,,,-99.99,FreeWX-Wi 1.01,2013-04-23 09:55:00,
2013-04-23 06:05:00,36.1,16.3,-100.00,North,-999,0.0,4.0,44,0.00,,,-99.99,FreeWX-Wi 1.01,2013-04-23 10:05:00,
2013-04-23 06:15:00,36.0,16.2,-100.00,North,-999,0.0,5.8,44,0.00,,,-99.99,FreeWX-Wi 1.01,2013-04-23 10:15:00,
2013-04-23 06:25:00,36.0,16.7,-100.00,NE,48,1.0,6.3,45,0.00,,,-99.99,FreeWX-Wi 1.01,2013-04-23 10:25:00,
2013-04-23 06:45:00,35.8,17.6,-100.00,North,-999,0.0,4.0,47,0.00,,,-99.99,FreeWX-Wi 1.01,2013-04-23 10:45:00,
2013-04-23 06:55:00,35.6,18.9,-100.00,North,-999,0.0,0.0,50,0.00,,,-99.99,FreeWX-Wi 1.01,2013-04-23 10:55:00,
2013-04-23 07:05:00,35.4,20.5,-100.00,North,-999,0.0,4.0,54,0.00,,,-99.99,FreeWX-Wi 1.01,2013-04-23 11:05:00,
2013-04-23 07:15:00,35.4,20.5,-100.00,North,-999,0.0,3.6,54,0.00,,,-99.99,FreeWX-Wi 1.01,2013-04-23 11:15:00,
2013-04-23 07:25:00,35.4,20.8,-100.00,North,-999,0.0,6.3,55,0.00,,,-99.99,FreeWX-Wi 1.01,2013-04-23 11:25:00,
2013-04-23 07:35:00,35.4,21.4,-100.00,North,-999,0.0,5.4,56,0.00,,,-99.99,FreeWX-Wi 1.01,2013-04-23 11:35:00,
2013-04-23 07:45:00,35.4,21.7,-100.00,North,-999,0.0,0.0,57,0.00,,,-99.99,FreeWX-Wi 1.01,2013-04-23 11:45:00,
2013-04-23 07:55:00,35.6,21.9,-100.00,North,-999,0.0,3.6,57,0.00,,,-99.99,FreeWX-Wi 1.01,2013-04-23 11:55:00,
2013-04-23 08:05:00,35.8,22.1,-100.00,North,-999,0.0,2.2,57,0.00,,,-99.99,FreeWX-Wi 1.01,2013-04-23 12:05:00,
2013-04-23 08:15:00,35.8,22.1,-100.00,North,-999,0.0,3.1,57,0.00,,,-99.99,FreeWX-Wi 1.01,2013-04-23 12:15:00,
2013-04-23 08:25:00,36.0,22.6,-100.00,North,-999,0.0,4.0,58,0.00,,,-99.99,FreeWX-Wi 1.01,2013-04-23 12:25:00,
2013-04-23 08:35:00,36.1,23.2,-100.00,North,-999,0.0,3.6,59,0.00,,,-99.99,FreeWX-Wi 1.01,2013-04-23 12:35:00,
2013-04-23 08:45:00,36.3,23.4,-100.00,North,-999,0.0,0.0,59,0.00,,,-99.99,FreeWX-Wi 1.01,2013-04-23 12:45:00,
2013-04-23 08:55:00,36.5,23.9,-100.00,North,-999,0.0,0.0,60,0.00,,,-99.99,FreeWX-Wi 1.01,2013-04-23 12:55:00,
2013-04-23 09:05:00,36.7,24.1,-100.00,North,-999,0.0,0.0,60,0.00,,,-99.99,FreeWX-Wi 1.01,2013-04-23 13:05:00,
2013-04-23 09:15:00,36.7,24.1,-100.00,North,-999,0.0,0.0,60,0.00,,,-99.99,FreeWX-Wi 1.01,2013-04-23 13:15:00,
2013-04-23 09:25:00,36.9,24.6,-100.00,North,-999,0.0,2.2,61,0.00,,,-99.99,FreeWX-Wi 1.01,2013-04-23 13:25:00,
2013-04-23 09:35:00,37.0,24.8,-100.00,North,-999,0.0,0.0,61,0.00,,,-99.99,FreeWX-Wi 1.01,2013-04-23 13:35:00,
2013-04-23 09:45:00,37.2,25.0,-100.00,North,-999,0.0,0.0,61,0.00,,,-99.99,FreeWX-Wi 1.01,2013-04-23 13:45:00,
2013-04-23 09:55:00,37.2,25.0,-100.00,North,-999,0.0,0.0,61,0.00,,,-99.99,FreeWX-Wi 1.01,2013-04-23 13:55:00,
2013-04-23 10:05:00,37.2,25.0,-100.00,North,-999,0.0,4.0,61,0.00,,,-99.99,FreeWX-Wi 1.01,2013-04-23 14:05:00,
2013-04-23 10:15:00,37.2,25.3,-100.00,North,-999,0.0,0.0,62,0.00,,,-99.99,FreeWX-Wi 1.01,2013-04-23 14:15:00,
2013-04-23 10:25:00,37.2,25.3,-100.00,North,-999,0.0,0.0,62,0.00,,,-99.99,FreeWX-Wi 1.01,2013-04-23 14:25:00,
2013-04-23 10:35:00,37.4,25.5,-100.00,North,-999,0.0,0.0,62,0.00,,,-99.99,FreeWX-Wi 1.01,2013-04-23 14:35:00,
2013-04-23 10:45:00,37.4,25.5,-100.00,North,-999,0.0,0.0,62,0.00,,,-99.99,FreeWX-Wi 1.01,2013-04-23 14:45:00,
2013-04-23 10:55:00,37.4,25.5,-100.00,North,-999,0.0,5.4,62,0.00,,,-99.99,FreeWX-Wi 1.01,2013-04-23 14:55:00,
2013-04-23 11:05:00,37.6,26.1,-100.00,North,-999,0.0,0.0,63,0.00,,,-99.99,FreeWX-Wi 1.01,2013-04-23 15:05:00,
2013-04-23 11:15:00,37.6,26.1,-100.00,North,-999,0.0,0.0,63,0.00,,,-99.99,FreeWX-Wi 1.01,2013-04-23 15:15:00,
2013-04-23 11:25:00,37.8,26.2,-100.00,North,-999,0.0,0.0,63,0.00,,,-99.99,FreeWX-Wi 1.01,2013-04-23 15:25:00,
2013-04-23 11:35:00,37.8,26.2,-100.00,North,-999,0.0,0.0,63,0.00,,,-99.99,FreeWX-Wi 1.01,2013-04-23 15:35:00,
2013-04-23 11:45:00,37.8,26.2,-100.00,North,-999,0.0,0.0,63,0.00,,,-99.99,FreeWX-Wi 1.01,2013-04-23 15:45:00,
2013-04-23 11:55:00,37.9,26.4,-100.00,North,-999,0.0,0.0,63,0.00,,,-99.99,FreeWX-Wi 1.01,2013-04-23 15:55:00,
2013-04-23 12:05:00,37.9,26.8,-100.00,North,-999,0.0,0.0,64,0.00,,,-99.99,FreeWX-Wi 1.01,2013-04-23 16:05:00,
2013-04-23 12:15:00,37.9,26.8,-100.00,North,-999,0.0,0.0,64,0.00,,,-99.99,FreeWX-Wi 1.01,2013-04-23 16:15:00,
2013-04-23 12:25:00,37.9,26.8,-100.00,North,-999,0.0,0.0,64,0.00,,,-99.99,FreeWX-Wi 1.01,2013-04-23 16:25:00,
2013-04-23 12:35:00,37.9,26.8,-100.00,North,-999,0.0,2.7,64,0.00,,,-99.99,FreeWX-Wi 1.01,2013-04-23 16:35:00,
2013-04-23 12:45:00,37.9,26.8,-100.00,North,-999,0.0,2.2,64,0.00,,,-99.99,FreeWX-Wi 1.01,2013-04-23 16:45:00,
2013-04-23 12:55:00,37.9,26.8,-100.00,North,-999,0.0,3.6,64,0.00,,,-99.99,FreeWX-Wi 1.01,2013-04-23 16:55:00,
2013-04-23 13:05:00,37.9,27.3,-100.00,North,-999,0.0,0.0,65,0.00,,,-99.99,FreeWX-Wi 1.01,2013-04-23 17:05:00,
2013-04-23 13:15:00,37.9,27.3,-100.00,North,-999,0.0,0.0,65,0.00,,,-99.99,FreeWX-Wi 1.01,2013-04-23 17:15:00,
2013-04-23 13:25:00,37.9,27.3,-100.00,North,-999,0.0,0.0,65,0.00,,,-99.99,FreeWX-Wi 1.01,2013-04-23 17:25:00,
2013-04-23 13:35:00,38.1,27.5,-100.00,North,-999,0.0,0.0,65,0.00,,,-99.99,FreeWX-Wi 1.01,2013-04-23 17:35:00,
2013-04-23 13:45:00,38.1,27.5,-100.00,North,-999,0.0,0.0,65,0.00,,,-99.99,FreeWX-Wi 1.01,2013-04-23 17:45:00,
2013-04-23 13:55:00,38.1,27.5,-100.00,North,-999,0.0,0.0,65,0.00,,,-99.99,FreeWX-Wi 1.01,2013-04-23 17:55:00,
2013-04-23 14:05:00,38.1,27.5,-100.00,North,-999,0.0,0.0,65,0.00,,,-99.99,FreeWX-Wi 1.01,2013-04-23 18:05:00,
2013-04-23 14:15:00,38.1,27.5,-100.00,North,-999,0.0,0.0,65,0.00,,,-99.99,FreeWX-Wi 1.01,2013-04-23 18:15:00,
2013-04-23 14:25:00,38.1,27.9,-100.00,North,-999,0.0,0.0,66,0.00,,,-99.99,FreeWX-Wi 1.01,2013-04-23 18:25:00,
2013-04-23 14:35:00,37.9,27.3,-100.00,North,-999,0.0,0.0,65,0.00,,,-99.99,FreeWX-Wi 1.01,2013-04-23 18:35:00,
2013-04-23 14:46:00,37.9,27.7,-100.00,North,-999,0.0,4.9,66,0.00,,,-99.99,FreeWX-Wi 1.01,2013-04-23 18:46:00,
2013-04-23 14:56:00,37.9,27.7,-100.00,North,-999,0.0,0.0,66,0.00,,,-99.99,FreeWX-Wi 1.01,2013-04-23 18:56:00,
2013-04-23 15:06:00,37.9,27.7,-100.00,North,-999,0.0,0.0,66,0.00,,,-99.99,FreeWX-Wi 1.01,2013-04-23 19:06:00,
2013-04-23 15:16:00,37.9,27.7,-100.00,North,-999,0.0,0.0,66,0.00,,,-99.99,FreeWX-Wi 1.01,2013-04-23 19:16:00,
2013-04-23 15:26:00,37.9,27.7,-100.00,North,-999,0.0,2.2,66,0.00,,,-99.99,FreeWX-Wi 1.01,2013-04-23 19:26:00,
2013-04-23 15:36:00,37.9,28.0,-100.00,North,-999,0.0,4.5,67,0.00,,,-99.99,FreeWX-Wi 1.01,2013-04-23 19:36:00,
2013-04-23 15:46:00,37.9,28.0,-100.00,North,-999,0.0,0.0,67,0.00,,,-99.99,FreeWX-Wi 1.01,2013-04-23 19:46:00,
2013-04-23 15:56:00,37.9,28.0,-100.00,North,-999,0.0,0.0,67,0.00,,,-99.99,FreeWX-Wi 1.01,2013-04-23 19:56:00,
2013-04-23 16:06:00,37.9,28.0,-100.00,North,-999,0.0,0.0,67,0.00,,,-99.99,FreeWX-Wi 1.01,2013-04-23 20:06:00,
2013-04-23 16:16:00,38.1,28.2,-100.00,North,-999,0.0,0.0,67,0.00,,,-99.99,FreeWX-Wi 1.01,2013-04-23 20:16:00,
2013-04-23 16:26:00,38.1,28.2,-100.00,North,-999,0.0,0.0,67,0.00,,,-99.99,FreeWX-Wi 1.01,2013-04-23 20:26:00,
2013-04-23 16:36:00,37.9,27.7,-100.00,North,-999,0.0,5.8,66,0.00,,,-99.99,FreeWX-Wi 1.01,2013-04-23 20:36:00,
2013-04-23 16:46:00,37.9,27.7,-100.00,North,-999,0.0,4.0,66,0.00,,,-99.99,FreeWX-Wi 1.01,2013-04-23 20:46:00,
2013-04-23 16:56:00,37.9,27.7,-100.00,North,-999,0.0,0.0,66,0.00,,,-99.99,FreeWX-Wi 1.01,2013-04-23 20:56:00,
2013-04-23 17:06:00,37.9,27.7,-100.00,North,-999,0.0,0.0,66,0.00,,,-99.99,FreeWX-Wi 1.01,2013-04-23 21:06:00,
2013-04-23 17:16:00,37.9,27.7,-100.00,North,-999,0.0,0.0,66,0.00,,,-99.99,FreeWX-Wi 1.01,2013-04-23 21:16:00,
2013-04-23 17:26:00,37.8,27.5,-100.00,North,-999,0.0,2.2,66,0.00,,,-99.99,FreeWX-Wi 1.01,2013-04-23 21:26:00,
2013-04-23 17:36:00,37.6,27.3,-100.00,North,-999,0.0,0.0,66,0.00,,,-99.99,FreeWX-Wi 1.01,2013-04-23 21:36:00,
2013-04-23 17:46:00,37.6,27.3,-100.00,North,-999,0.0,7.2,66,0.00,,,-99.99,FreeWX-Wi 1.01,2013-04-23 21:46:00,
2013-04-23 17:56:00,37.6,27.7,-100.00,North,-999,0.0,0.0,67,0.00,,,-99.99,FreeWX-Wi 1.01,2013-04-23 21:56:00,
2013-04-23 18:06:00,37.6,27.7,-100.00,North,-999,0.0,0.0,67,0.00,,,-99.99,FreeWX-Wi 1.01,2013-04-23 22:06:00,
2013-04-23 18:16:00,37.6,27.7,-100.00,North,-999,0.0,0.0,67,0.00,,,-99.99,FreeWX-Wi 1.01,2013-04-23 22:16:00,
2013-04-23 18:26:00,37.6,27.7,-100.00,North,-999,0.0,0.0,67,0.00,,,-99.99,FreeWX-Wi 1.01,2013-04-23 22:26:00,
2013-04-23 18:36:00,37.8,27.9,-100.00,North,-999,0.0,0.0,67,0.00,,,-99.99,FreeWX-Wi 1.01,2013-04-23 22:36:00,
2013-04-23 18:46:00,37.8,27.9,-100.00,North,-999,0.0,0.0,67,0.00,,,-99.99,FreeWX-Wi 1.01,2013-04-23 22:46:00,
2013-04-23 18:56:00,37.8,27.9,-100.00,North,-999,0.0,0.0,67,0.00,,,-99.99,FreeWX-Wi 1.01,2013-04-23 22:56:00,
2013-04-23 19:06:00,37.8,27.9,-100.00,North,-999,0.0,0.0,67,0.00,,,-99.99,FreeWX-Wi 1.01,2013-04-23 23:06:00,
2013-04-23 19:16:00,37.8,27.9,-100.00,North,-999,0.0,0.0,67,0.00,,,-99.99,FreeWX-Wi 1.01,2013-04-23 23:16:00,
2013-04-23 19:26:00,37.8,27.9,-100.00,North,-999,0.0,0.0,67,0.00,,,-99.99,FreeWX-Wi 1.01,2013-04-23 23:26:00,
2013-04-23 19:36:00,37.9,27.7,-100.00,North,-999,0.0,0.0,66,0.00,,,-99.99,FreeWX-Wi 1.01,2013-04-23 23:36:00,
2013-04-23 19:46:00,37.9,27.7,-100.00,North,-999,0.0,0.0,66,0.00,,,-99.99,FreeWX-Wi 1.01,2013-04-23 23:46:00,
2013-04-23 19:56:00,37.8,27.5,-100.00,North,-999,0.0,4.9,66,0.00,,,-99.99,FreeWX-Wi 1.01,2013-04-23 23:56:00,
2013-04-23 20:06:00,37.8,27.5,-100.00,North,-999,0.0,0.0,66,0.00,,,-99.99,FreeWX-Wi 1.01,2013-04-24 00:06:00,
2013-04-23 20:16:00,37.8,27.5,-100.00,North,-999,0.0,2.2,66,0.00,,,-99.99,FreeWX-Wi 1.01,2013-04-24 00:16:00,
2013-04-23 20:26:00,37.6,27.3,-100.00,North,-999,0.0,0.0,66,0.00,,,-99.99,FreeWX-Wi 1.01,2013-04-24 00:26:00,
2013-04-23 20:36:00,37.6,27.7,-100.00,North,-999,0.0,0.0,67,0.00,,,-99.99,FreeWX-Wi 1.01,2013-04-24 00:36:00,
2013-04-23 20:46:00,37.6,27.7,-100.00,North,-999,0.0,0.0,67,0.00,,,-99.99,FreeWX-Wi 1.01,2013-04-24 00:46:00,
2013-04-23 20:56:00,37.6,27.7,-100.00,North,-999,0.0,0.0,67,0.00,,,-99.99,FreeWX-Wi 1.01,2013-04-24 00:56:00,
2013-04-23 21:06:00,37.6,27.7,-100.00,North,-999,0.0,10.1,67,0.00,,,-99.99,FreeWX-Wi 1.01,2013-04-24 01:06:00,
2013-04-23 21:16:00,37.6,27.7,-100.00,North,-999,0.0,0.0,67,0.00,,,-99.99,FreeWX-Wi 1.01,2013-04-24 01:16:00,
2013-04-23 21:26:00,37.6,27.7,-100.00,North,-999,0.0,3.1,67,0.00,,,-99.99,FreeWX-Wi 1.01,2013-04-24 01:26:00,
2013-04-23 21:36:00,37.6,27.7,-100.00,North,-999,0.0,0.0,67,0.00,,,-99.99,FreeWX-Wi 1.01,2013-04-24 01:36:00,
2013-04-23 21:46:00,37.6,27.3,-100.00,North,-999,0.0,0.0,66,0.00,,,-99.99,FreeWX-Wi 1.01,2013-04-24 01:46:00,
2013-04-23 21:56:00,37.8,27.5,-100.00,North,-999,0.0,0.0,66,0.00,,,-99.99,FreeWX-Wi 1.01,2013-04-24 01:56:00,
2013-04-23 22:06:00,37.8,27.5,-100.00,North,-999,0.0,0.0,66,0.00,,,-99.99,FreeWX-Wi 1.01,2013-04-24 02:06:00,
2013-04-23 22:16:00,37.6,27.3,-100.00,North,-999,0.0,0.0,66,0.00,,,-99.99,FreeWX-Wi 1.01,2013-04-24 02:16:00,
2013-04-23 22:26:00,37.6,27.3,-100.00,North,-999,0.0,0.0,66,0.00,,,-99.99,FreeWX-Wi 1.01,2013-04-24 02:26:00,
2013-04-23 22:46:00,37.6,27.3,-100.00,North,-999,0.0,0.0,66,0.00,,,-99.99,FreeWX-Wi 1.01,2013-04-24 02:46:00,
2013-04-23 22:56:00,37.6,27.7,-100.00,North,-999,0.0,0.0,67,0.00,,,-99.99,FreeWX-Wi 1.01,2013-04-24 02:56:00,
2013-04-23 23:16:00,37.6,28.0,-100.00,North,-999,0.0,0.0,68,0.00,,,-99.99,FreeWX-Wi 1.01,2013-04-24 03:16:00,
2013-04-23 23:26:00,37.4,27.9,-100.00,North,-999,0.0,0.0,68,0.00,,,-99.99,FreeWX-Wi 1.01,2013-04-24 03:26:00,
2013-04-23 23:36:00,37.4,28.2,-100.00,North,-999,0.0,0.0,69,0.00,,,-99.99,FreeWX-Wi 1.01,2013-04-24 03:36:00,
2013-04-23 23:46:00,37.2,28.4,-100.00,North,-999,0.0,0.0,70,0.00,,,-99.99,FreeWX-Wi 1.01,2013-04-24 03:46:00,